STARLINK-4136 (53260 NORAD) Tracking and Keplerian Element Data

This shows tracking and keplerian element data for the satellite.

Feedback or suggestion? Click here.




ElementValue
Catalog53260
NameSTARLINK-4136
Epoch Orbit1074
Epoch Day270.25001157
Epoch Year2022
RAAN88.1366
Inclination53.2174
Eccentricity0.0001354
Argument of Perigee87.6689
Mean Anonmoly119.3554
Mean Motion15.1958383
Decay Rate-0.01062797
L11 53260U 22086U 22270.25001157 -.01062797 00000+0 -53892-1 0 9999
L22 53260 53.2174 88.1366 0001354 87.6689 119.3554 15.19583830 10742

Live tracking and technical data element details for STARLINK-4136 (NORAD 53260). STARLINK-4136 can be tracked NOW for your location showing map with azimuth and elevation plus other details from your city location.

Track the satellite on the map from your city or location and see movement details for azimuth, elevation, latitude, longitude, range, height, and movement on the map or in text.







IsCatalogInMostPopularTable: catalog: 53260, numindb: 3
Update: records affected: 1



GetName: 53260 STARLINK-4136

Hit Count: updated at: Wed, 28 Sep 2022 22:26:39 GMT